Volver al catálogo

FENGYUN 1C DEB

ActivoSSO
NORAD 33711·DEBRIS·🇨🇳 China

Lanzado May 10, 1999 desde Taiyuan Satellite Launch Center

Loading…

Próximos Pases (próximas 24 horas)

TLE

ActualizadoSource: Space-Track

Época: Sep 13, 2026, 21:56 UTC

1 33711U 99025DGY 26256.91413935  .00000969  00000-0  64498-3 0  9994
2 33711  99.1607 316.5733 0096856  10.9552 165.5771 14.01446261957858

Sigue FENGYUN 1C DEB en tiempo real con AllMySat

Download on the App Store